Regional Weather Roundup
Issued by NWS Cleveland, OH

Home | Current Version | Previous Version | Graphics & Text | Print | Product List | Glossary On
Versions: 1 2 3 4 5 6 7 8 9 10 11 12 13 14 15 16 17 18 19 20 21 22 23 24 25 26 27 28 29 30 31 32 33 34 35 36 37 38 39 40 41 42 43 44 45 46 47 48 49 50
000
ASUS41 KCLE 220312
RWRCLE
OHIO REGIONAL WEATHER ROUNDUP
NATIONAL WEATHER SERVICE WILMINGTON, OH
1100 PM EDT THU SEP 21 2017

NOTE: "FAIR" INDICATES FEW OR NO CLOUDS BELOW 12,000 FEET WITH NO
SIGNIFICANT WEATHER AND/OR OBSTRUCTIONS TO VISIBILITY.

OHZ001>008-015>018-024>027-034-035-043-044-220400-
   NORTHWEST OHIO

CITY           SKY/WX    TMP DP  RH WIND       PRES   REMARKS
DEFIANCE       FAIR      75  69  81 NE6       30.07R
FINDLAY        FAIR      78  68  71 E7        30.07S
TOLEDO EXPRESS FAIR      76  72  87 E7        30.08R
TOLEDO EXEC    FAIR      75  70  84 N6        30.09R
LIMA           FAIR      69  68  96 CALM      30.08S
$$

OHZ009>014-019>023-028>033-038-089-220400-
   NORTHEAST OHIO

CITY           SKY/WX    TMP DP  RH WIND       PRES   REMARKS
CLE-HOPKINS    FAIR      74  64  71 SE6       30.11S
CLE-LAKEFRONT  FAIR      76  62  62 SE3       30.08S
CUY CO. ARPT   PTCLDY    72  63  73 SE9       30.11S
LORAIN-ELYRIA  FAIR      67  60  78 CALM      30.10R
ASHTABULA      FAIR      64  61  90 SE3       30.12F
AKRON-CANTON   FAIR      73  63  70 NE8       30.12R
WOOSTER        FAIR      65  63  93 E3        30.12R
MANSFIELD      FAIR      73  65  75 E5        30.12R
YOUNGSTOWN     FAIR      67  63  87 E6        30.12S
$$

OHZ042-051>053-060>062-070>072-077>081-220400-
  SOUTHWEST OHIO

CITY           SKY/WX    TMP DP  RH WIND       PRES   REMARKS
CINC-COVINGTON FAIR      73  71  93 CALM      30.08R
CINC-LUNKEN    FAIR      71  71 100 CALM      30.07R FOG
HAMILTON       FAIR      72  71  97 CALM      30.08R
DAYTON         MOCLDY    74  68  81 E3        30.09S
WRIGHT-PAT AFB MOCLDY    72  71  98 CALM      30.08R
DAYTON GENERAL MOCLDY    74  69  85 CALM      30.08R
WILMINGTON     FAIR      68  67  96 SE3       30.09R
$$

OHZ036-037-039>041-045>050-054>059-063>069-073>076-082>088-220400-
  CENTRAL AND SOUTHEAST OHIO

CITY           SKY/WX    TMP DP  RH WIND       PRES   REMARKS
COLUMBUS       FAIR      77  66  68 CALM      30.08R
OSU AIRPORT    FAIR      73  68  84 CALM      30.09R
BOLTON FIELD   FAIR      68  66  94 W7        30.09S
RICKENBACK AFB FAIR      71  67  86 CALM      30.08R
NEWARK         FAIR      69  67  93 CALM      30.09R
MARION         CLOUDY    74  66  76 S3        30.10R
LANCASTER      MOCLDY    68  66  93 CALM      30.10R
ZANESVILLE     FAIR      70  67  90 CALM      30.10R
NEW PHILLY     FAIR      67  65  93 CALM      30.11R
$$




USA.gov is the U.S. government's official web portal to all federal, state and local government web resources and services.